STARLINK-34542, 65890

Orbit data source: Space-Track

STARLINK-34542, 65890 is a payload satellite owned by SpaceX/Seattle (US) in LEO that was launched on Tue, 07 Oct 2025 UTC via an FALCON 9 launch vehicle from the Air Force Eastern Test Range (AFETR). Payload-class satellites include a variety of spacecraft equipped with specific instruments for various scientific and technological missions. These include communications satellites like Starlink; space stations such as the ISS; scientific satellites like the Hubble; Earth observation satellites from companies like Planet Labs, Umbra, and HawkEye 360; GPS; miniature CubeSats for education and research; and military/defense satellites.

Loading next visibility...
Identifier
65890, 2025-224J
Orbit
LEO
Country
Flag of USUS
Related business
Manufacturer
SpaceX/Seattle
Mission
Operational Commercial Communications
Bus & Motor
STARLINK V2MO, Unknown motor
Mass
575 kg wet, ~530 kg dry
Launch date (UTC)
2025-10-07 (5 months ago)
Launch vehicle
FALCON 9
Launch site
Air Force Eastern Test Range (AFETR)
Object type
Payload
Rocket body
Debris
Shape & HBR
Box + 2 Pan, 17.7 m
Radar Cross Section
36.964 m²

Expand to show TLE details & history
Last TLE update: 10 hours ago

TLE from 10 hours ago
0 STARLINK-34542
1 65890U 25224J   26062.17541811  .00011795  00000-0  40978-3 0  9991
2 65890  53.1598  41.8433 0001247  90.6113 269.5030 15.30196166 23871
Epoch: 2026-03-03T04:12Z
TLE epoch observation values (Epoch: 2026-03-03T04:12:36.124Z)
Latitude
-0.00009°
Longitude
177.73447°
Altitude
476.134 km
Speed
7.629 km/s
True Right ascension
02h 47m 22s
True Declination
0° 00' 00"
Sunlit
Object was in daylight at epoch
Visualization orbit readout
Latitude
Unknown
Longitude
Unknown
Altitude
Unknown
Speed
Unknown
Apparent Right ascension
Unknown
Apparent Declination
Unknown
Sunlit
N/A
Visualization observer readout
Local Sidereal Time
17:48:23
Azimuth
Unknown
Elevation
Unknown
Doppler factor
Unknown
Orbital elements
Apogee altitude
476.338 km
Perigee altitude
474.628 km
Semi-major axis
6,853.62 km
Eccentricity
0.00012
Inclination
53.1598°
RAAN
41.8433°
Arg. of periapsis
90.6113°
True anomaly
269.48871°
Mean anomaly
269.503°
Eccentric anomaly
269.49586°
Mean motion
3.82528 °/min
Orbital period
94.11 mins
BSTAR
0.00040978
Loading maneuver chart data...
Computing Atmospheric mass density...
Loading historical data...
Loading historical data...
Loading historical data...
Loading historical data...
Loading historical data...
Loading historical data...
Loading historical data...

Documentation

Showing up to 5 results
|